Back to catalog

STARLINK-37292

AliveCommunicationsSSO
NORAD 68787·PAYLOAD·🇺🇸 United States

Launched Apr 19, 2026 from Vandenberg Space Force Base

Loading…

Next Passes (next 24 hours)

TLE

FreshSource: CelesTrak SupGP

Epoch: Sep 14, 2026, 22:41 UTC

1 68787C 26086X   26257.94562500  .00028976  00000+0  89961-3 0  2575
2 68787  97.2847 293.5301 0001031  90.1177  94.9039 15.33421086    16

Track STARLINK-37292 in real time with AllMySat

Download on the App Store